{"data":{"norad_id":58170,"epoch":"2026-05-25T04:32:55.225248Z","epoch_age_seconds":55687,"freshness":"FRESH","line1":"1 58170U 23166W   26145.18952807  .00000763  00000+0  37894-4 0  9997","line2":"2 58170  53.1609 224.1487 0000900  99.3649 260.7454 15.30194208144891","mean_motion":15.30194208,"eccentricity":9.0e-5,"inclination_deg":53.1609,"raan_deg":224.1487,"arg_perigee_deg":99.3649,"mean_anomaly_deg":260.7454,"bstar":3.7894e-5,"rev_number":14489,"period_min":94.105701908395,"perigee_km":474.61556009916,"apogee_km":475.84916658456,"semimajor_km":6853.3693633419,"source":"CELESTRAK","updated_at":"2026-05-25T13:38:18.565982Z"}}